Lær å fly hos oss!

Oslo Flyveklubb har i mange år utdannet flygere til privatflygersetifikat PPL(A). Skolen har godkjenning for å drive utdanning til teoriundervisning til PPL(A), privatflygersertifikat PPL (A) og mørkeflyging.

Gi bort en flytur i gave

På en introduksjonstur vil kandidaten være med på forberedelser til, og gjennomføring av en flytur på en times varighet med en av våre instruktører.

Hvor vi holder til?

Flyplassen ligger i Lillestrøm 10 minutter med tog fra Oslo. Følg storgata fra Lillestrøms sentrum så vill man se plassen på venstre side.
Metar/TAF Gardermoen:

ENGM 232350Z VRB02KT CAVOK 04/M02 Q1009

TAF ENGM 231700Z 2318/2418 34008KT CAVOK PROB30 TEMPO 2409/2415 32015G25KT